• In Netherlands
  • List of Countries
  • For 7 days
  • Water Temperature
  • Satellite Maps
  • Weather Map
  • Weather Widgets
  • user-avatar
    Login

    Hourly Weather Madinat 'Isa

    Today, 18 August, Friday

    Time Temperature Precipitation Wind Pressure Humidity
    00:00 +38°C° 0 mm 2 mps 749 mmHg 64%
    01:00 +37°C° 0 mm 2 mps 749 mmHg 64%
    02:00 +36°C° 0 mm 1 mps 749 mmHg 65%
    03:00 +35°C° 0 mm 1 mps 749 mmHg 65%
    04:00 +36°C° 0 mm 1 mps 749 mmHg 64%
    05:00 +36°C° 0 mm 1 mps 750 mmHg 62%
    06:00 +34°C° 0 mm 0 mps 750 mmHg 60%
    07:00 +37°C° 0 mm 1 mps 750 mmHg 55%
    08:00 +39°C° 0 mm 1 mps 750 mmHg 50%
    09:00 +40°C° 0 mm 1 mps 750 mmHg 45%
    10:00 +41°C° 0 mm 1 mps 750 mmHg 41%
    11:00 +42°C° 0 mm 1 mps 750 mmHg 37%
    12:00 +43°C° 0 mm 1 mps 750 mmHg 33%
    13:00 +43°C° 0 mm 2 mps 749 mmHg 32%
    14:00 +45°C° 0 mm 3 mps 749 mmHg 31%
    15:00 +45°C° 0 mm 4 mps 749 mmHg 30%
    16:00 +44°C° 0 mm 4 mps 749 mmHg 34%
    17:00 +43°C° 0 mm 4 mps 748 mmHg 38%
    18:00 +42°C° 0 mm 4 mps 748 mmHg 41%
    19:00 +40°C° 0 mm 3 mps 749 mmHg 43%
    20:00 +40°C° 0 mm 3 mps 749 mmHg 46%
    21:00 +39°C° 0 mm 2 mps 749 mmHg 48%
    22:00 +39°C° 0 mm 2 mps 749 mmHg 48%
    23:00 +37°C° 0 mm 1 mps 748 mmHg 48%

    Tomorrow, 19 August, Saturday

    Time Temperature Precipitation Wind Pressure Humidity
    00:00 +37°C° 0 mm 1 mps 748 mmHg 48%
    01:00 +37°C° 0 mm 1 mps 748 mmHg 48%
    02:00 +36°C° 0 mm 1 mps 748 mmHg 49%
    03:00 +36°C° 0 mm 1 mps 748 mmHg 50%
    04:00 +37°C° 0 mm 2 mps 748 mmHg 49%
    05:00 +37°C° 0 mm 2 mps 748 mmHg 49%
    06:00 +38°C° 0 mm 3 mps 749 mmHg 49%
    07:00 +39°C° 0 mm 2 mps 749 mmHg 45%
    08:00 +40°C° 0 mm 2 mps 749 mmHg 42%
    09:00 +41°C° 0 mm 2 mps 750 mmHg 38%
    10:00 +42°C° 0 mm 2 mps 750 mmHg 35%
    11:00 +43°C° 0 mm 2 mps 750 mmHg 31%
    12:00 +45°C° 0 mm 1 mps 749 mmHg 28%
    13:00 +46°C° 0 mm 2 mps 749 mmHg 28%
    14:00 +46°C° 0 mm 3 mps 749 mmHg 27%
    15:00 +47°C° 0 mm 4 mps 748 mmHg 27%
    16:00 +45°C° 0 mm 4 mps 748 mmHg 29%
    17:00 +44°C° 0 mm 3 mps 748 mmHg 31%
    18:00 +43°C° 0 mm 3 mps 748 mmHg 33%
    19:00 +42°C° 0 mm 3 mps 748 mmHg 34%
    20:00 +42°C° 0 mm 3 mps 749 mmHg 35%
    21:00 +40°C° 0 mm 3 mps 749 mmHg 37%
    22:00 +40°C° 0 mm 3 mps 749 mmHg 39%
    23:00 +40°C° 0 mm 4 mps 749 mmHg 42%

    Day after tomorrow, 20 August, Sunday

    Time Temperature Precipitation Wind Pressure Humidity
    00:00 +40°C° 0 mm 4 mps 749 mmHg 44%
    01:00 +38°C° 0 mm 4 mps 749 mmHg 49%
    02:00 +38°C° 0 mm 3 mps 749 mmHg 53%
    03:00 +37°C° 0 mm 3 mps 749 mmHg 58%
    04:00 +37°C° 0 mm 2 mps 749 mmHg 57%
    05:00 +37°C° 0 mm 2 mps 749 mmHg 57%
    06:00 +36°C° 0 mm 1 mps 750 mmHg 57%
    07:00 +37°C° 0 mm 1 mps 750 mmHg 53%
    08:00 +39°C° 0 mm 2 mps 750 mmHg 49%
    09:00 +40°C° 0 mm 2 mps 750 mmHg 45%
    10:00 +41°C° 0 mm 2 mps 750 mmHg 42%
    11:00 +42°C° 0 mm 2 mps 750 mmHg 40%
    12:00 +43°C° 0 mm 2 mps 750 mmHg 38%
    13:00 +44°C° 0 mm 3 mps 749 mmHg 38%
    14:00 +45°C° 0 mm 3 mps 749 mmHg 37%
    15:00 +45°C° 0 mm 4 mps 748 mmHg 36%
    16:00 +44°C° 0 mm 4 mps 748 mmHg 37%
    17:00 +44°C° 0 mm 4 mps 748 mmHg 37%
    18:00 +43°C° 0 mm 4 mps 748 mmHg 38%
    19:00 +43°C° 0 mm 4 mps 748 mmHg 38%
    20:00 +43°C° 0 mm 4 mps 749 mmHg 37%
    21:00 +42°C° 0 mm 4 mps 749 mmHg 37%
    22:00 +42°C° 0 mm 4 mps 749 mmHg 37%
    23:00 +41°C° 0 mm 4 mps 749 mmHg 37%

    21 August, Monday

    Time Temperature Precipitation Wind Pressure Humidity
    00:00 +41°C° 0 mm 4 mps 749 mmHg 38%
    01:00 +40°C° 0 mm 4 mps 748 mmHg 43%
    02:00 +40°C° 0 mm 4 mps 748 mmHg 47%
    03:00 +38°C° 0 mm 4 mps 748 mmHg 52%
    04:00 +38°C° 0 mm 4 mps 748 mmHg 53%
    05:00 +38°C° 0 mm 3 mps 749 mmHg 54%
    06:00 +38°C° 0 mm 3 mps 749 mmHg 56%
    07:00 +39°C° 0 mm 3 mps 749 mmHg 50%
    08:00 +40°C° 0 mm 3 mps 749 mmHg 44%
    09:00 +41°C° 0 mm 2 mps 750 mmHg 38%
    10:00 +42°C° 0 mm 2 mps 749 mmHg 34%
    11:00 +43°C° 0 mm 1 mps 749 mmHg 31%
    12:00 +44°C° 0 mm 1 mps 749 mmHg 28%
    13:00 +45°C° 0 mm 2 mps 748 mmHg 27%
    14:00 +46°C° 0 mm 3 mps 748 mmHg 26%
    15:00 +47°C° 0 mm 4 mps 747 mmHg 25%
    16:00 +45°C° 0 mm 4 mps 747 mmHg 28%
    17:00 +44°C° 0 mm 4 mps 747 mmHg 31%
    18:00 +43°C° 0 mm 4 mps 747 mmHg 33%
    19:00 +43°C° 0 mm 4 mps 747 mmHg 34%
    20:00 +42°C° 0 mm 4 mps 747 mmHg 34%
    21:00 +42°C° 0 mm 4 mps 748 mmHg 35%
    22:00 +41°C° 0 mm 4 mps 747 mmHg 35%
    23:00 +41°C° 0 mm 4 mps 747 mmHg 36%

    22 August, Tuesday

    Time Temperature Precipitation Wind Pressure Humidity
    00:00 +40°C° 0 mm 4 mps 747 mmHg 36%
    01:00 +39°C° 0 mm 3 mps 747 mmHg 38%
    02:00 +38°C° 0 mm 3 mps 747 mmHg 40%
    03:00 +38°C° 0 mm 3 mps 746 mmHg 42%
    04:00 +38°C° 0 mm 2 mps 747 mmHg 41%
    05:00 +38°C° 0 mm 2 mps 747 mmHg 40%
    06:00 +37°C° 0 mm 1 mps 748 mmHg 39%
    07:00 +39°C° 0 mm 2 mps 748 mmHg 35%
    08:00 +40°C° 0 mm 2 mps 748 mmHg 31%
    09:00 +42°C° 0 mm 2 mps 748 mmHg 27%
    10:00 +42°C° 0 mm 2 mps 748 mmHg 26%
    11:00 +43°C° 0 mm 1 mps 748 mmHg 24%
    12:00 +44°C° 0 mm 1 mps 747 mmHg 22%
    13:00 +45°C° 0 mm 2 mps 747 mmHg 21%
    14:00 +45°C° 0 mm 3 mps 747 mmHg 20%
    15:00 +47°C° 0 mm 4 mps 746 mmHg 20%
    16:00 +46°C° 0 mm 5 mps 746 mmHg 24%
    17:00 +45°C° 0 mm 5 mps 746 mmHg 28%
    18:00 +42°C° 0 mm 5 mps 746 mmHg 33%
    19:00 +42°C° 0 mm 5 mps 747 mmHg 35%
    20:00 +41°C° 0 mm 5 mps 747 mmHg 37%
    21:00 +41°C° 0 mm 5 mps 747 mmHg 39%
    22:00 +40°C° 0 mm 4 mps 747 mmHg 40%
    23:00 +40°C° 0 mm 4 mps 747 mmHg 40%

    23 August, Wednesday

    Time Temperature Precipitation Wind Pressure Humidity
    00:00 +40°C° 0 mm 4 mps 747 mmHg 41%
    01:00 +38°C° 0 mm 4 mps 747 mmHg 41%
    02:00 +38°C° 0 mm 4 mps 747 mmHg 41%
    03:00 +38°C° 0 mm 4 mps 747 mmHg 42%
    04:00 +38°C° 0 mm 4 mps 747 mmHg 43%
    05:00 +37°C° 0 mm 4 mps 748 mmHg 45%
    06:00 +37°C° 0 mm 4 mps 748 mmHg 47%
    07:00 +40°C° 0 mm 4 mps 748 mmHg 41%
    08:00 +41°C° 0 mm 4 mps 749 mmHg 35%
    09:00 +43°C° 0 mm 4 mps 749 mmHg 29%
    10:00 +44°C° 0 mm 4 mps 749 mmHg 25%
    11:00 +45°C° 0 mm 3 mps 749 mmHg 21%
    12:00 +46°C° 0 mm 3 mps 749 mmHg 18%
    13:00 +48°C° 0 mm 4 mps 748 mmHg 17%
    14:00 +48°C° 0 mm 4 mps 748 mmHg 17%
    15:00 +48°C° 0 mm 5 mps 748 mmHg 16%
    16:00 +47°C° 0 mm 5 mps 748 mmHg 20%
    17:00 +46°C° 0 mm 5 mps 748 mmHg 24%
    18:00 +45°C° 0 mm 6 mps 748 mmHg 27%
    19:00 +43°C° 0 mm 5 mps 749 mmHg 30%
    20:00 +42°C° 0 mm 5 mps 749 mmHg 33%
    21:00 +41°C° 0 mm 5 mps 749 mmHg 36%
    22:00 +41°C° 0 mm 4 mps 749 mmHg 35%
    23:00 +39°C° 0 mm 3 mps 749 mmHg 34%
    Show more